Home > Time Zones > World Clock > Weather > Norway > Ski > Past weeks

Flag for Norway Weather past 2 weeks in Ski, Norway

Now
59 °F

Cool.


Feels Like: 60 °F
Forecast: 47 / 65 °F
Wind: 3 mph from Southwest

Location: Oslo / Fornebu

Current Time: Aug 2, 2015 at 7:25:49 PM

Latest Report: Aug 2, 2015 at 6:50 PM


Visibility: N/A

Pressure: 30.04 "Hg

Humidity: 72%

Dew point: 50 °F

Location of SkiLocation

Historic Weather in Ski — Graph

°F

Ski temperature yesterday

Maximum temperature yesterday: 57 °F (at 11:50 AM)
Minimum temperature yesterday: 52 °F (at 2:20 PM)
Average temperature yesterday: 55 °F

Past Weeks' High & Low Weather Summary

 TemperatureHumidityPressure
High61 °F (Aug 2, 2:50 PM)100% (Jul 18, 5:20 PM)30.04 "Hg (Jul 18, 5:20 PM)
Low46 °F (Jul 31, 5:20 AM)59% (Jul 20, 11:20 AM)29.39 "Hg (Jul 18, 5:20 PM)
Average53 °F83%29.72 "Hg
* Reported Jul 18 5:20 PM — Aug 2 5:50 PM, Ski, Weather by CustomWeather, © 2015

Note: Actual official high and low records may vary slightly from our data, if they occured in-between our weather recording intervals... More about our weather records

Advertising

Ski weather history for previous 24 hours

 ConditionsComfort  
Time TempWeatherWind HumidityBarometerVisibility
5:50 PM
Sun, Aug 2
57 °FCool.3 mph72%30.04 "HgN/A
5:20 PM55 °FCool.5 mph77%30.04 "HgN/A
4:50 PM55 °FCool.5 mph77%30.04 "HgN/A
4:20 PM57 °FCool.7 mph72%30.04 "HgN/A
3:50 PM59 °FCool.3 mph68%30.04 "HgN/A
3:20 PM59 °FCool.1 mph63%30.01 "HgN/A
2:50 PM61 °FCool.5 mph63%30.01 "HgN/A
2:20 PM57 °FCool.5 mph72%30.01 "HgN/A
1:50 PM57 °FCool.6 mph67%30.01 "HgN/A
1:20 PM57 °FCool.6 mph67%29.98 "HgN/A
12:50 PM57 °FCool.3 mph67%29.98 "HgN/A
12:20 PM59 °FCool.2 mph63%29.95 "HgN/A
11:50 AM59 °FCool.2 mph68%29.95 "HgN/A
11:20 AM57 °FCool.3 mph72%29.95 "HgN/A
10:50 AM55 °FCool.1 mph72%29.92 "HgN/A
10:20 AM54 °FPassing clouds.No wind77%29.92 "HgN/A
9:50 AM54 °FPartly sunny.5 mph77%29.92 "HgN/A
9:20 AM54 °FBroken clouds.6 mph77%29.89 "HgN/A
8:50 AM52 °FScattered clouds.6 mph82%29.89 "HgN/A
8:20 AM52 °FPassing clouds.8 mph82%29.86 "HgN/A
7:50 AM52 °FPassing clouds.10 mph82%29.86 "HgN/A
7:20 AM52 °FBroken clouds.13 mph82%29.86 "HgN/A
6:50 AM55 °FPassing clouds.5 mph82%29.86 "HgN/A
6:20 AM54 °FCool.2 mph82%29.86 "HgN/A
5:50 AM54 °FCool.10 mph82%29.83 "HgN/A
5:20 AM54 °FCool.14 mph82%29.83 "HgN/A
4:50 AM54 °FPassing clouds.12 mph82%29.83 "HgN/A
4:20 AM54 °FPassing clouds.9 mph88%29.83 "HgN/A
3:50 AM54 °FCool.8 mph82%29.83 "HgN/A
3:20 AM54 °FPassing clouds.7 mph82%29.83 "HgN/A
2:50 AM54 °FPassing clouds.12 mph82%29.83 "HgN/A
2:20 AM54 °FPassing clouds.10 mph88%29.83 "HgN/A
1:50 AM52 °FPassing clouds.7 mph88%29.83 "HgN/A
1:20 AM52 °FPassing clouds.12 mph88%29.83 "HgN/A
12:50 AM52 °FLight rain. Passing clouds.12 mph88%29.83 "HgN/A
11:50 PM
Sat, Aug 1
54 °FLight rain. Passing clouds.5 mph94%29.80 "HgN/A
11:20 PM54 °FPassing clouds.9 mph88%29.80 "HgN/A
10:50 PM54 °FPassing clouds.9 mph88%29.80 "HgN/A
10:20 PM54 °FPartly sunny.12 mph88%29.80 "HgN/A
9:50 PM54 °FPartly sunny.13 mph88%29.80 "HgN/A
9:20 PM54 °FPartly sunny.15 mph88%29.80 "HgN/A
8:50 PM54 °FPartly sunny.20 mph88%29.77 "HgN/A
8:20 PM55 °FScattered clouds.23 mph82%29.77 "HgN/A
7:50 PM55 °FPartly sunny.24 mph82%29.77 "HgN/A
7:20 PM55 °FScattered clouds.25 mph82%29.77 "HgN/A
Weather by CustomWeather, © 2015

See weather overviewHow to use our weather pages